Location: Asheville, NC
(35.6000°N, 82.5500°W)
Time: 20:19:22

AO-7 - Pass Details

Date: 14 March 2018
Orbit: 1440 x 1459 km, 101.7° (Epoch: 19 March)

Event Time Altitude Azimuth Distance (km) Brightness Sun altitude
Rises 05:06:38 0° 17° (NNE) 4,542 ? -31.8°
Reaches altitude 10° 05:09:26 10° 18° (NNE) 3,560 ? -31.3°
Maximum altitude 05:17:45 82° 106° (ESE) 1,454 ? -29.7°
Enters shadow 05:22:03 33° 192° (SSW) 2,226 ? -28.9°
